Home > Weather > Tiruchirappalli > Past weeks

Flag for India Past Weather in Tiruchirappalli, Tamil Nadu, India — Yesterday and Last 2 Weeks

Now
84 °F

Partly cloudy.


Feels Like: 87 °F
Forecast: 81 / 95 °F
Wind: 9 mph from West

Location: Tiruchchirapalli

Current Time: Jun 30, 2016 at 3:29:09 AM

Latest Report: Jun 30, 2016 at 3:00 AM


Visibility: 4 mi

Pressure: 29.71 "Hg

Humidity: 58%

Dew Point: 68 °F

Location of TiruchirappalliLocation

Past Weather in Tiruchirappalli — Graph

°F

Tiruchirappalli Temperature Yesterday

Maximum temperature yesterday: 93 °F (at 12:00 PM)
Minimum temperature yesterday: 82 °F (at 12:00 AM)
Average temperature yesterday: 86 °F

High & Low Weather Summary for the Past Weeks

 TemperatureHumidityPressure
High100 °F (Jun 15, 2:30 PM)94% (Jun 18, 10:30 PM)29.80 "Hg (Jun 18, 10:30 PM)
Low77 °F (Jun 18, 10:30 PM)31% (Jun 15, 4:00 PM)29.56 "Hg (Jun 17, 3:30 PM)
Average87 °F57%29.68 "Hg
* Reported Jun 15 1:30 AM — Jun 30 2:00 AM, Tiruchirappalli, Weather by CustomWeather, © 2016

Note: Actual official high and low records may vary slightly from our data, if they occured in-between our weather recording intervals... More about our weather records

Advertising

Tiruchirappalli Weather History for the Previous 24 Hours

Scroll right to see more
 ConditionsComfort  
Time TempWeatherWind HumidityBarometerVisibility
2:00 AM
Thu, Jun 30
84 °FPartly cloudy.9 mph58%29.71 "Hg4 mi
1:30 AM84 °FPartly cloudy.9 mph62%29.71 "Hg4 mi
1:00 AM84 °FPartly cloudy.12 mph62%29.71 "Hg4 mi
12:30 AM84 °FPartly cloudy.14 mph62%29.74 "Hg4 mi
12:00 AM84 °FPartly cloudy.9 mph58%29.74 "Hg4 mi
11:30 PM
Wed, Jun 29
84 °FPartly cloudy.9 mph58%29.74 "Hg4 mi
11:00 PM84 °FPartly cloudy.9 mph62%29.77 "Hg4 mi
10:30 PM84 °FPartly cloudy.12 mph62%29.77 "Hg4 mi
10:00 PM84 °FPartly cloudy.13 mph62%29.74 "Hg4 mi
9:30 PM86 °FPartly cloudy.9 mph59%29.74 "Hg4 mi
9:00 PM86 °FMostly cloudy.9 mph59%29.74 "Hg4 mi
8:30 PM86 °FMostly cloudy.9 mph59%29.74 "Hg4 mi
8:00 PM86 °FMostly cloudy.9 mph62%29.71 "Hg4 mi
7:30 PM86 °FPartly cloudy.9 mph59%29.71 "Hg4 mi
7:00 PM88 °FBroken clouds.9 mph55%29.71 "Hg4 mi
6:30 PM88 °FBroken clouds.8 mph55%29.71 "Hg4 mi
6:00 PM88 °FBroken clouds.9 mph55%29.68 "Hg5 mi
5:30 PM88 °FBroken clouds.9 mph52%29.68 "Hg5 mi
5:00 PM90 °FBroken clouds.9 mph49%29.68 "Hg5 mi
4:30 PM90 °FBroken clouds.12 mph49%29.68 "Hg5 mi
4:00 PM90 °FBroken clouds.12 mph49%29.65 "Hg5 mi
3:30 PM90 °FPartly sunny.12 mph49%29.65 "HgN/A
3:00 PM90 °FPartly sunny.13 mph49%29.68 "HgN/A
2:30 PM90 °FPartly sunny.12 mph49%29.68 "HgN/A
2:00 PM91 °FPartly sunny.14 mph46%29.68 "HgN/A
1:30 PM91 °FPartly sunny.12 mph46%29.68 "HgN/A
1:00 PM91 °FPartly sunny.12 mph46%29.71 "HgN/A
12:30 PM93 °FPartly sunny.12 mph44%29.71 "HgN/A
12:00 PM93 °FPartly sunny.12 mph44%29.71 "HgN/A
11:30 AM91 °FPartly sunny.12 mph49%29.74 "HgN/A
11:00 AM91 °FScattered clouds.9 mph46%29.74 "Hg5 mi
10:30 AM91 °FScattered clouds.9 mph49%29.74 "Hg5 mi
10:00 AM90 °FScattered clouds.9 mph52%29.74 "Hg5 mi
9:30 AM88 °FScattered clouds.9 mph55%29.74 "Hg4 mi
9:00 AM86 °FScattered clouds.9 mph59%29.74 "Hg4 mi
8:30 AM86 °FScattered clouds.9 mph59%29.74 "Hg4 mi
8:00 AM86 °FBroken clouds.10 mph59%29.74 "Hg4 mi
7:30 AM84 °FBroken clouds.9 mph58%29.74 "Hg4 mi
7:00 AM84 °FBroken clouds.10 mph58%29.71 "Hg4 mi
6:30 AM82 °FScattered clouds.9 mph62%29.71 "Hg4 mi
6:00 AM82 °FPassing clouds.10 mph62%29.68 "Hg4 mi
5:30 AM82 °FPassing clouds.9 mph62%29.68 "Hg4 mi
4:30 AM82 °FPassing clouds.9 mph62%29.68 "Hg4 mi
4:00 AM82 °FPassing clouds.10 mph62%29.68 "Hg4 mi
3:30 AM82 °FPassing clouds.12 mph62%29.68 "Hg4 mi
3:00 AM82 °FPassing clouds.13 mph62%29.68 "Hg4 mi
Weather by CustomWeather, © 2016

See weather overviewHow to use our weather pages